FW3814 Weather Reports


Display with metric or nautical units.
time (UTC)temp
F
wind
direction
speed
MPH
gust
MPH
rain 1hr
in
rain 24hr
in
rain mn
in
humidity
%
barometer
mb
20260902120003 84 0 0.0 0.0 0.00 0.00 0.00 50 1018.3
20260902115524 84 0 0.0 0.0 0.00 0.00 0.00 50 1018.3
20260902115003 84 0 0.0 0.0 0.00 0.00 0.00 50 1018.5
20260902114505 84 247 0.0 2.0 0.00 0.00 0.00 50 1018.3
20260902114005 85 227 1.0 4.0 0.00 0.00 0.00 50 1018.4
20260902113505 85 195 1.0 4.0 0.00 0.00 0.00 50 1018.5
20260902113026 85 91 1.0 4.0 0.00 0.00 0.00 51 1018.6
20260902112505 85 174 1.0 5.0 0.00 0.00 0.00 51 1018.6
20260902112005 84 244 2.0 5.0 0.00 0.00 0.00 51 1018.6
20260902111505 84 294 2.0 5.0 0.00 0.00 0.00 51 1018.7
20260902111005 83 313 3.0 5.0 0.00 0.04 0.00 52 1018.7
20260902110505 83 299 3.0 5.0 0.00 0.05 0.00 52 1018.8
20260902110007 83 258 1.0 5.0 0.00 0.05 0.00 52 1018.9
20260902105505 84 224 0.0 1.0 0.00 0.05 0.00 53 1019.0
20260902105005 83 0 0.0 0.0 0.00 0.05 0.00 54 1019.0
20260902104505 82 0 0.0 0.0 0.00 0.05 0.00 54 1019.0
20260902104005 82 54 1.0 3.0 0.00 0.28 0.00 54 1019.0
20260902103505 81 37 1.0 3.0 0.00 0.33 0.00 58 1019.0
20260902103005 81 32 1.0 3.0 0.00 0.69 0.00 58 1019.1
20260902102505 82 3 0.0 2.0 0.00 0.83 0.00 55 1019.0
20260902102005 81 315 0.0 2.0 0.00 0.83 0.00 59 1019.1
20260902101505 81 0 0.0 0.0 0.00 0.83 0.00 59 1019.0
20260902101005 81 0 0.0 0.0 0.00 0.83 0.00 59 1019.1
20260902100505 81 0 0.0 0.0 0.00 0.83 0.00 59 1019.2
20260902100005 81 178 1.0 5.0 0.00 0.83 0.00 59 1019.3
20260902095505 81 180 1.0 5.0 0.00 0.83 0.00 59 1019.1
20260902095005 82 170 1.0 5.0 0.00 0.83 0.00 55 1019.2
20260902094505 81 0 0.0 0.0 0.00 0.83 0.00 60 1019.4
20260902094005 80 0 0.0 0.0 0.00 0.83 0.00 61 1019.4
20260902093505 80 315 0.0 1.0 0.00 0.83 0.00 61 1019.5
20260902093005 80 315 1.0 2.0 0.00 0.83 0.00 61 1019.3
20260902092505 80 267 1.0 4.0 0.00 0.83 0.00 60 1019.4
20260902092005 80 202 0.0 4.0 0.00 0.83 0.00 60 1019.5
20260902091526 81 202 0.0 4.0 0.00 0.83 0.00 61 1019.4
20260902091005 81 0 0.0 0.0 0.00 0.83 0.00 61 1019.5
20260902090505 80 0 0.0 0.0 0.00 0.83 0.00 61 1019.5
20260902090005 80 179 1.0 6.0 0.00 0.83 0.00 61 1019.5
20260902085505 79 146 3.0 6.0 0.00 0.83 0.00 60 1019.5
20260902085005 80 120 2.0 6.0 0.00 0.83 0.00 61 1019.4
20260902084505 80 157 1.0 4.0 0.00 0.83 0.00 62 1019.3
20260902084005 79 154 1.0 4.0 0.00 0.83 0.00 62 1019.3
20260902083526 79 112 0.0 2.0 0.00 0.83 0.00 62 1019.3
20260902083005 78 176 0.0 3.0 0.00 0.84 0.00 63 1019.2
20260902082505 78 152 1.0 4.0 0.00 0.84 0.00 62 1019.2
20260902082005 78 135 1.0 4.0 0.00 0.84 0.00 62 1019.2
20260902081505 78 0 0.0 0.0 0.00 0.84 0.00 64 1019.3
20260902081005 78 0 0.0 0.0 0.00 0.84 0.00 65 1019.3
20260902080505 77 0 0.0 0.0 0.00 0.84 0.00 66 1019.3
20260902080005 77 0 0.0 0.0 0.00 0.84 0.00 66 1019.1
20260902075505 77 0 0.0 0.0 0.00 0.84 0.00 69 1019.2
20260902075026 77 67 0.0 1.0 0.00 0.84 0.00 69 1019.2
20260902074505 76 30 1.0 4.0 0.00 0.84 0.00 69 1019.1
20260902074005 75 28 1.0 4.0 0.00 0.84 0.00 68 1019.0
20260902073505 75 11 1.0 4.0 0.00 0.84 0.00 68 1019.2
20260902073005 74 12 2.0 4.0 0.00 0.84 0.00 68 1019.2
20260902072505 74 16 1.0 4.0 0.00 0.84 0.00 68 1019.1
20260902072005 75 22 0.0 4.0 0.00 0.84 0.00 69 1019.2
20260902071505 75 51 1.0 4.0 0.00 0.84 0.00 69 1019.2
20260902071026 75 29 2.0 4.0 0.00 0.84 0.00 69 1019.0
20260902070505 76 27 2.0 4.0 0.00 0.84 0.00 69 1019.1
20260902070007 76 51 1.0 2.0 0.00 0.84 0.00 69 1018.8
20260902065526 76 0 0.0 0.0 0.00 0.84 0.00 70 1018.9
20260902065005 75 44 0.0 2.0 0.00 0.84 0.00 71 1018.8
20260902064526 74 44 0.0 2.0 0.00 0.84 0.00 71 1018.8
20260902064005 73 22 1.0 4.0 0.00 0.84 0.00 72 1018.8
20260902063505 73 12 2.0 4.0 0.00 0.84 0.00 72 1018.6
20260902063005 73 1 2.0 4.0 0.00 0.84 0.00 72 1018.8
20260902062505 72 4 1.0 4.0 0.00 0.84 0.00 73 1018.9
20260902062005 72 9 2.0 5.0 0.00 0.84 0.00 76 1018.7
20260902061505 71 13 3.0 5.0 0.00 0.84 0.00 77 1018.6
20260902061005 71 18 2.0 5.0 0.00 0.84 0.00 77 1018.6
20260902060505 70 5 0.0 4.0 0.00 0.84 0.00 78 1018.7
20260902060005 70 15 2.0 4.0 0.00 0.84 0.00 78 1018.7
20260902055505 70 17 2.0 4.0 0.00 0.84 0.00 78 1018.5
20260902055005 70 12 1.0 3.0 0.00 0.84 0.00 79 1018.5
20260902054505 69 11 1.0 4.0 0.00 0.84 0.00 79 1018.5
20260902054026 69 9 1.0 4.0 0.00 0.84 0.00 79 1018.5
20260902053505 69 360 0.0 2.0 0.00 0.84 0.00 79 1018.4
20260902053005 69 0 0.0 0.0 0.00 0.84 0.00 79 1018.6
20260902052526 69 0 0.0 0.0 0.00 0.84 0.00 79 1018.4
20260902052005 69 0 0.0 0.0 0.00 0.84 0.00 79 1018.4
20260902051505 69 0 0.0 0.0 0.00 0.84 0.00 79 1018.1
20260902051026 69 0 0.0 0.0 0.00 0.84 0.00 79 1017.9
20260902050505 69 0 0.0 0.0 0.00 0.84 0.00 78 1018.1
20260902050007 69 0 0.0 0.0 0.00 0.84 0.00 78 1018.4
20260902045505 69 0 0.0 0.0 0.00 0.84 0.00 78 1018.1
20260902045005 69 0 0.0 0.0 0.00 0.84 0.00 78 1018.0
20260902044505 69 15 0.0 2.0 0.00 0.84 0.00 78 1018.1
20260902044005 69 17 1.0 2.0 0.00 0.84 0.00 78 1018.1
20260902043505 69 5 1.0 3.0 0.00 0.84 0.00 77 1017.9
20260902043005 69 2 2.0 4.0 0.00 0.84 0.00 77 1018.1
20260902042526 69 5 3.0 4.0 0.00 0.84 0.00 76 1018.0
20260902042005 69 9 2.0 4.0 0.00 0.84 0.00 76 1017.9
20260902041505 69 19 0.0 2.0 0.00 0.84 0.00 76 1017.9
20260902041005 69 0 0.0 0.0 0.00 0.84 0.00 76 1017.9
20260902040505 70 0 0.0 0.0 0.00 0.84 0.00 75 1017.9
20260902040005 70 0 0.0 0.0 0.00 0.84 0.00 75 1018.0
20260902035505 70 0 0.0 0.0 0.00 0.84 0.00 75 1017.9
20260902035005 70 15 1.0 3.0 0.00 0.84 0.00 76 1017.9
20260902034505 70 17 1.0 3.0 0.00 0.84 0.00 76 1017.7
20260902034005 70 22 0.0 3.0 0.00 0.84 0.00 76 1017.7
20260902033505 70 0 0.0 0.0 0.00 0.84 0.00 76 1017.9
20260902033005 70 0 0.0 0.0 0.00 0.84 0.00 76 1018.1
20260902032505 70 22 1.0 3.0 0.00 0.84 0.00 76 1018.0
20260902032005 70 22 1.0 3.0 0.00 0.84 0.00 76 1018.1
20260902031505 69 0 0.0 0.0 0.00 0.84 0.00 76 1018.1
20260902031005 69 0 0.0 0.0 0.00 0.84 0.00 75 1018.0
20260902030505 69 0 0.0 0.0 0.00 0.84 0.00 75 1017.9
20260902030005 70 11 0.0 2.0 0.00 0.84 0.00 75 1018.1
20260902025505 70 11 0.0 2.0 0.00 0.84 0.00 75 1018.0
20260902025026 70 0 0.0 0.0 0.00 0.84 0.00 75 1018.0
20260902024505 70 0 0.0 0.0 0.00 0.84 0.00 75 1017.7
20260902024005 70 11 2.0 4.0 0.00 0.84 0.00 74 1018.0
20260902023505 70 12 4.0 5.0 0.00 0.84 0.00 74 1017.9
20260902023005 70 16 4.0 5.0 0.00 0.84 0.00 74 1018.0
20260902022505 70 8 3.0 5.0 0.00 0.84 0.00 74 1017.9
20260902022005 70 352 2.0 4.0 0.00 0.84 0.00 74 1017.9
20260902021505 71 6 2.0 3.0 0.00 0.84 0.00 74 1017.9
20260902021005 71 17 2.0 3.0 0.00 0.84 0.00 74 1017.9
20260902020505 71 18 3.0 4.0 0.00 0.84 0.00 74 1017.9
20260902020026 71 17 3.0 4.0 0.00 0.84 0.00 74 1017.7
20260902015505 71 22 1.0 4.0 0.00 0.84 0.00 74 1017.7
20260902015005 70 0 0.0 0.0 0.00 0.84 0.00 74 1017.8
20260902014505 71 22 0.0 2.0 0.00 0.84 0.00 75 1017.8
20260902014005 70 9 1.0 3.0 0.00 0.84 0.00 75 1017.8
20260902013505 70 7 1.0 3.0 0.00 0.84 0.00 74 1017.8
20260902013005 71 0 0.0 0.0 0.00 0.84 0.00 74 1017.8
20260902012505 71 0 0.0 0.0 0.00 0.84 0.00 74 1017.8
20260902012026 71 0 0.0 0.0 0.00 0.84 0.00 74 1017.9
20260902011505 71 0 0.0 0.0 0.00 0.84 0.00 75 1017.6
20260902011005 71 16 2.0 5.0 0.00 0.84 0.00 75 1017.9
20260902010505 71 14 4.0 5.0 0.00 0.84 0.00 76 1017.8
20260902010005 70 9 3.0 5.0 0.00 0.84 0.00 76 1017.9
20260902005505 70 5 1.0 4.0 0.00 0.84 0.00 76 1018.0
20260902005005 70 337 0.0 2.0 0.00 0.84 0.00 75 1018.0
20260902004526 70 337 0.0 2.0 0.00 0.84 0.00 75 1017.9
20260902004005 71 0 0.0 0.0 0.00 0.84 0.00 75 1017.9
20260902003505 71 0 0.0 0.0 0.00 0.84 0.00 74 1018.0
20260902003005 71 0 0.0 0.0 0.00 0.84 0.00 74 1017.9
20260902002526 71 0 0.0 0.0 0.00 0.84 0.00 74 1017.7
20260902002005 71 0 0.0 0.0 0.00 0.84 0.00 75 1018.0
20260902001505 71 360 0.0 2.0 0.00 0.84 0.00 75 1018.0
20260902001005 71 360 1.0 2.0 0.00 0.84 0.00 75 1018.0
20260902000505 71 354 1.0 2.0 0.00 0.84 0.00 74 1017.7
20260902000005 71 325 0.0 2.0 0.00 0.84 0.00 74 1018.1
20260901235505 71 0 0.0 0.0 0.00 0.84 0.00 74 1017.9
20260901235005 71 0 0.0 0.0 0.00 0.84 0.00 74 1018.0
20260901234505 71 360 0.0 3.0 0.00 0.84 0.00 74 1018.0
20260901234005 71 360 1.0 3.0 0.00 0.84 0.00 74 1017.9
20260901233505 71 360 1.0 3.0 0.00 0.84 0.00 74 1018.0
20260901233005 71 360 0.0 2.0 0.00 0.84 0.00 74 1017.9
20260901232505 71 0 0.0 0.0 0.00 0.84 0.00 73 1017.7
20260901232005 72 0 0.0 0.0 0.00 0.84 0.00 73 1017.9
20260901231505 72 0 0.0 0.0 0.00 0.84 0.00 73 1018.1
20260901231003 72 0 0.0 0.0 0.00 0.84 0.00 73 1017.9
20260901230503 72 0 0.0 0.0 0.00 0.84 0.00 73 1017.9
20260901230024 72 15 1.0 2.0 0.00 0.84 0.00 73 1018.0
20260901225503 72 15 1.0 2.0 0.00 0.84 0.00 72 1018.1
20260901225003 72 0 0.0 0.0 0.00 0.84 0.00 72 1018.1
20260901224503 72 0 0.0 0.0 0.00 0.84 0.00 72 1017.9
20260901224003 72 0 0.0 0.0 0.00 0.84 0.00 72 1017.9
20260901223503 72 0 0.0 0.0 0.00 0.84 0.00 70 1018.1
20260901223003 72 32 0.0 2.0 0.00 0.84 0.00 70 1017.9
20260901222503 72 14 2.0 4.0 0.00 0.84 0.00 70 1018.1
20260901222003 72 9 3.0 4.0 0.00 0.84 0.00 70 1018.0
20260901221503 73 356 3.0 4.0 0.00 0.84 0.00 70 1018.1
20260901221003 73 355 3.0 4.0 0.00 0.84 0.00 70 1018.0
20260901220503 73 2 3.0 4.0 0.00 0.84 0.00 69 1017.9
20260901220024 73 8 3.0 4.0 0.00 0.84 0.00 69 1018.0
20260901215503 73 12 2.0 4.0 0.00 0.84 0.84 69 1017.8
20260901215003 73 4 1.0 4.0 0.00 0.84 0.84 69 1017.9
20260901214503 73 347 0.0 2.0 0.00 0.84 0.84 69 1018.0
20260901214003 73 360 0.0 2.0 0.00 0.84 0.84 68 1017.8
20260901213524 73 0 0.0 0.0 0.00 0.84 0.84 68 1018.0
20260901213003 73 0 0.0 0.0 0.00 0.84 0.84 68 1018.0
20260901212503 73 0 0.0 0.0 0.00 0.84 0.84 68 1018.0
20260901212003 73 0 0.0 0.0 0.00 0.84 0.84 67 1018.0
20260901211503 73 0 0.0 0.0 0.00 0.84 0.84 67 1018.0
20260901211003 74 0 0.0 0.0 0.00 0.84 0.84 66 1017.9
20260901210503 74 0 0.0 0.0 0.00 0.84 0.84 66 1017.8
20260901210003 74 0 0.0 0.0 0.00 0.84 0.84 65 1017.8
20260901205503 74 0 0.0 0.0 0.00 0.84 0.84 65 1018.0
20260901205003 74 44 0.0 1.0 0.00 0.84 0.84 64 1017.9
20260901204503 74 30 0.0 2.0 0.00 0.84 0.84 64 1018.0
20260901204003 74 22 0.0 2.0 0.00 0.84 0.84 63 1017.9
20260901203524 75 22 0.0 2.0 0.00 0.84 0.84 63 1017.8
20260901203003 75 0 0.0 0.0 0.00 0.84 0.84 63 1017.8
20260901202503 75 0 0.0 0.0 0.00 0.84 0.84 63 1017.8
20260901202003 75 0 0.0 0.0 0.00 0.84 0.84 63 1017.8
20260901201503 75 0 0.0 0.0 0.00 0.84 0.84 63 1017.8
20260901201003 76 0 0.0 0.0 0.00 0.84 0.84 62 1017.8
20260901200503 76 0 0.0 0.0 0.00 0.84 0.84 62 1017.7
20260901200003 76 0 0.0 0.0 0.00 0.84 0.84 62 1017.7
20260901195503 76 0 0.0 0.0 0.00 0.84 0.84 62 1017.7
20260901195024 76 0 0.0 0.0 0.00 0.84 0.84 62 1017.8
20260901194503 76 0 0.0 0.0 0.00 0.84 0.84 62 1017.6
20260901194003 76 22 0.0 2.0 0.00 0.84 0.84 62 1017.4
20260901193503 76 22 0.0 3.0 0.00 0.84 0.84 62 1017.5
20260901193003 76 22 0.0 3.0 0.00 0.84 0.84 62 1017.7
20260901192503 76 0 0.0 0.0 0.00 0.84 0.84 62 1017.5
20260901192003 76 0 0.0 0.0 0.00 0.84 0.84 62 1017.5
20260901191503 77 0 0.0 0.0 0.00 0.84 0.84 61 1017.4
20260901191024 77 0 0.0 0.0 0.00 0.84 0.84 61 1017.3
20260901190503 77 0 0.0 0.0 0.00 0.84 0.84 61 1017.4
20260901190003 77 0 0.0 0.0 0.00 0.84 0.84 61 1017.2
20260901185524 77 0 0.0 0.0 0.00 0.84 0.84 60 1017.1
20260901185003 77 0 0.0 0.0 0.00 0.84 0.84 60 1017.1
20260901184503 77 0 0.0 0.0 0.00 0.84 0.84 59 1017.0
20260901184003 77 0 0.0 0.0 0.00 0.84 0.84 59 1017.0
20260901183524 77 0 0.0 0.0 0.00 0.84 0.84 59 1016.9
20260901183003 78 0 0.0 0.0 0.00 0.84 0.84 58 1016.9
20260901182503 78 0 0.0 0.0 0.00 0.84 0.84 59 1017.0
20260901182003 78 0 0.0 0.0 0.00 0.84 0.84 59 1016.9
20260901181503 78 0 0.0 0.0 0.00 0.84 0.84 58 1017.1
20260901181003 78 0 0.0 0.0 0.00 0.84 0.84 58 1016.8
20260901180503 79 0 0.0 0.0 0.00 0.84 0.84 57 1016.9
20260901180024 79 0 0.0 0.0 0.00 0.84 0.84 57 1016.8
20260901175503 79 0 0.0 0.0 0.00 0.84 0.84 56 1016.8
20260901175003 79 0 0.0 0.0 0.00 0.84 0.84 56 1016.8
20260901174503 79 0 0.0 0.0 0.00 0.84 0.84 56 1016.6
20260901174003 80 0 0.0 0.0 0.00 0.84 0.84 56 1016.7
20260901173503 80 0 0.0 0.0 0.00 0.84 0.84 56 1016.6
20260901173003 80 0 0.0 0.0 0.00 0.84 0.84 56 1016.6
20260901172503 80 0 0.0 0.0 0.00 0.84 0.84 56 1016.7
20260901172003 80 0 0.0 0.0 0.00 0.84 0.84 55 1016.4
20260901171503 81 0 0.0 0.0 0.00 0.84 0.84 55 1016.5
20260901171024 81 0 0.0 0.0 0.00 0.84 0.84 54 1016.4
20260901170503 81 0 0.0 0.0 0.00 0.84 0.84 53 1016.7
20260901170003 82 0 0.0 0.0 0.00 0.84 0.84 50 1016.5
20260901165503 82 0 0.0 0.0 0.00 0.84 0.84 49 1016.8
20260901165004 82 0 0.0 0.0 0.00 0.84 0.84 48 1016.6
20260901164503 83 0 0.0 0.0 0.00 0.84 0.84 46 1016.6
20260901164024 83 0 0.0 0.0 0.00 0.84 0.84 45 1016.6
20260901163524 83 135 1.0 3.0 0.00 0.84 0.84 45 1016.7
20260901163003 84 135 1.0 3.0 0.00 0.84 0.84 45 1016.8
20260901162503 84 205 1.0 3.0 0.00 0.84 0.84 45 1016.4
20260901162024 84 179 1.0 6.0 0.00 0.84 0.84 45 1016.7
20260901161503 84 202 3.0 6.0 0.00 0.84 0.84 45 1016.8
20260901161003 84 210 2.0 5.0 0.00 0.84 0.84 45 1016.8
20260901160503 85 0 0.0 0.0 0.00 0.84 0.84 44 1016.7
20260901160024 85 0 0.0 0.0 0.00 0.84 0.84 44 1016.8
20260901155503 85 202 1.0 4.0 0.00 0.84 0.84 44 1016.7
20260901155003 85 195 1.0 4.0 0.00 0.84 0.84 44 1016.8
20260901154503 85 182 1.0 4.0 0.00 0.84 0.84 44 1016.8
20260901154024 85 181 3.0 8.0 0.00 0.84 0.84 44 1016.8
20260901153503 85 199 4.0 8.0 0.00 0.84 0.84 44 1016.7
20260901153003 85 207 2.0 6.0 0.00 0.84 0.84 45 1016.7
20260901152503 85 184 2.0 6.0 0.00 0.84 0.84 45 1016.8
20260901152024 85 164 1.0 3.0 0.00 0.84 0.84 45 1016.9
20260901151503 85 178 2.0 7.0 0.00 0.84 0.84 46 1016.6
20260901151003 85 229 5.0 8.0 0.00 0.84 0.84 45 1016.7
20260901150503 85 230 6.0 8.0 0.00 0.84 0.84 45 1016.9
20260901150003 85 189 4.0 8.0 0.00 0.84 0.84 45 1016.8
20260901145503 85 115 5.0 8.0 0.00 0.84 0.84 45 1016.8
20260901145003 85 111 5.0 8.0 0.00 0.84 0.84 45 1016.9
20260901144503 85 134 2.0 8.0 0.00 0.84 0.84 45 1017.0
20260901144024 85 138 1.0 7.0 0.00 0.84 0.84 45 1016.9
20260901143524 85 198 2.0 7.0 0.00 0.84 0.84 46 1016.9
20260901143003 85 198 2.0 5.0 0.00 0.84 0.84 46 1017.0
20260901142503 85 146 4.0 8.0 0.00 0.84 0.84 46 1017.1
20260901142003 85 167 5.0 8.0 0.00 0.84 0.84 46 1017.1
20260901141524 85 199 3.0 8.0 0.00 0.84 0.84 47 1016.9
20260901141003 85 165 1.0 4.0 0.00 0.84 0.84 48 1017.0
20260901140503 84 191 1.0 4.0 0.00 0.84 0.84 48 1017.1
20260901140003 84 137 4.0 8.0 0.00 0.84 0.84 48 1017.1
20260901135503 84 147 5.0 8.0 0.00 0.84 0.84 48 1017.2
20260901135003 84 165 3.0 8.0 0.00 0.84 0.84 48 1017.1
20260901134503 84 216 2.0 7.0 0.00 0.84 0.84 49 1017.1
20260901134003 84 242 2.0 7.0 0.00 0.84 0.84 51 1017.2
20260901133524 84 187 3.0 7.0 0.00 0.84 0.84 50 1017.3
20260901133003 83 144 2.0 5.0 0.00 0.84 0.84 50 1017.3
20260901132503 83 59 1.0 3.0 0.00 0.84 0.84 50 1017.4
20260901132003 83 115 2.0 5.0 0.00 0.84 0.84 50 1017.4
20260901131503 83 115 3.0 6.0 0.00 0.84 0.84 50 1017.3
20260901131003 83 176 5.0 7.0 0.00 0.84 0.84 50 1017.6
20260901130503 83 187 6.0 8.0 0.00 0.84 0.84 50 1017.5
20260901130003 83 171 4.0 8.0 0.00 0.84 0.84 50 1017.5
20260901125503 83 223 3.0 8.0 0.00 0.84 0.84 51 1017.6
20260901125024 83 208 5.0 8.0 0.00 0.84 0.84 51 1017.7
20260901124503 83 133 4.0 7.0 0.00 0.84 0.84 51 1017.8
20260901124003 83 167 4.0 7.0 0.00 0.84 0.84 51 1017.8
20260901123503 83 176 2.0 7.0 0.00 0.84 0.84 52 1017.9
20260901123003 83 137 4.0 7.0 0.00 0.84 0.84 52 1017.9
20260901122503 83 188 5.0 8.0 0.00 0.84 0.84 51 1017.8
20260901122003 83 204 6.0 8.0 0.00 0.84 0.84 52 1017.9
20260901121503 83 191 4.0 8.0 0.00 0.84 0.84 52 1017.9
20260901121003 83 178 1.0 8.0 0.04 0.84 0.84 52 1018.0
20260901120503 82 153 1.0 4.0 0.05 0.84 0.84 51 1018.1